{"data":{"norad_id":54372,"epoch":"2026-09-21T21:31:32.215296Z","epoch_age_seconds":41633,"freshness":"FRESH","line1":"1 54372U 22160A   26264.89690064  .00010390  00000+0  27726-3 0  9993","line2":"2 54372  34.9996  62.5439 0002216  98.3392 261.7579 15.37316491213099","mean_motion":15.37316491,"eccentricity":0.0002216,"inclination_deg":34.9996,"raan_deg":62.5439,"arg_perigee_deg":98.3392,"mean_anomaly_deg":261.7579,"bstar":0.00027726,"rev_number":21309,"period_min":93.669716576273,"perigee_km":452.53450919546,"apogee_km":455.56253381859,"semimajor_km":6832.185521507,"source":"CELESTRAK","updated_at":"2026-09-22T09:00:25.144817Z"}}